ネフスキー彗星

C/2013 V3 ( Nevski )

English version
Home page
Updated on May 7, 2015

---------------------------------------------------------------------

・ プロフィール

発見日 2013年11月6日
発見光度 15.1等
発見者 Vitali Nevski (ISON-Kislovodsk observatory near Kislovodsk, Russia)

・ 写真集

・ 軌道要素

Epoch 2013 Nov. 4.0 TT = JDT 2456600.5
T 2013 Oct. 29.90696 TT                                 MPC
q   1.3866959            (2000.0)            P               Q
n   0.02173375     Peri.  339.64434     +0.11164770     -0.84543345
a  12.7168528      Node   100.91811     +0.96940118     -0.02296655
e   0.8909560      Incl.   32.13451     +0.21862331     +0.53358674
P  45.3
From 804 observations 2013 Nov. 7-2014 Mar. 8, mean residual 0".6.

・ 星図

・ 光度変化

        m1 = 13.0 + 5 logΔ + 10.0 log r          [  ,13]  (              〜2013年11月11日)
        m1 =  2   + 5 logΔ + 35   log r(t + 50)  [13,  ]  (2013年11月11日〜              )

---------------------------------------------------------------------

軌道要素はM.P.E.C. 2014-J58に掲載されたものです。
星図はステラナビゲータ Ver.8 (アストロアーツ) で作成したものです。
光度グラフはComet for Windowsで作成したものです。

---------------------------------------------------------------------

Copyright(C) Seiichi Yoshida (comet@aerith.net). All rights reserved.